Content
SEND FEEDBACK

Daily
Averages
Monthly
Summary
United States of America

WILLIAMSPORT, MARYLAND


Home > North America > United States > Maryland
Elevation: 36 feet     Latitude: 39 37N     Longitude: 077 51W

WEATHER
 
SELECT A DAY
Number of Records: 191,866;   Date Range: 1/1/95 - 12/24/14
 
SHARE

PRINT THIS DATA

[ ← Previous Day ]
WEATHER ALMANAC - JULY 20, 2014
[ Next Day → ]
[ °C ]   °F
Weather ElementAverageHighLow
Temperature72 °F78.1 °F (1:53 pm)64.9 °F (6:17 am)
Dewpoint61.3 °F64.9 °F (9:53 pm)57 °F (2:53 am)
Humidity70.1 %88 % (7:51 am)54 % (2:53 pm)
Barometer30.14 in30.17 in (7:53 am)30.10 in (5:53 pm)
Wind Speed2.8 mph6.9 mph (7:53 pm)
Weather ElementAverage
Visibility10 mi
Wind DirectionENE (76.1 °)

Weather ElementTotal
Precipitation---
Cooling Degree Days6.5 (Base 65)
Growing Degree Days21.5 (Base 50)
Averaged from 28 records on July 20, 2014
WEATHER CONDITIONS BREAKOUT
WIND DIRECTION BREAKOUT
WEATHER BY HOUR - JULY 20, 2014
[ °C ]   °F
Local TimeTemperatureDewpointHumidityBarometerVisibilityWind DirectionWind SpeedGust SpeedPrecipitationEventsConditions
1:53 AM68.0 °F57.9 °F70 %30.15 in10.0 miCalmOvercast
2:53 AM68.0 °F57.0 °F68 %30.13 in10.0 miCalmOvercast
3:53 AM68.0 °F57.9 °F70 %30.12 in10.0 miEast (80°)3.5 mphOvercast
4:53 AM66.9 °F59.0 °F76 %30.13 in10.0 miCalmOvercast
5:53 AM66.0 °F60.1 °F81 %30.14 in10.0 miCalmScattered Clouds
6:17 AM64.9 °F61.0 °F87 %30.12 in10.0 miCalmMostly Cloudy
6:53 AM66.0 °F60.1 °F81 %30.15 in10.0 miENE (60°)4.6 mphOvercast
7:51 AM66.2 °F62.6 °F88 %30.15 in10.0 miNE (50°)4.6 mphOvercast
7:53 AM66.9 °F62.1 °F84 %30.17 in10.0 miENE (60°)3.5 mphOvercast
8:10 AM68.0 °F62.1 °F81 %30.15 in10.0 miNE (50°)3.5 mphOvercast
8:23 AM68.0 °F62.1 °F81 %30.15 in10.0 miCalmOvercast
8:50 AM69.8 °F62.6 °F78 %30.16 in10.0 miENE (60°)3.5 mphOvercast
8:53 AM70.0 °F63.0 °F78 %30.17 in10.0 miCalmOvercast
9:53 AM71.1 °F63.0 °F75 %30.17 in10.0 miENE (60°)3.5 mphOvercast
10:53 AM73.0 °F62.1 °F68 %30.17 in10.0 miVariable3.5 mphMostly Cloudy
11:53 AM77.0 °F61.0 °F58 %30.16 in10.0 miCalmPartly Cloudy
12:53 PM77.0 °F60.1 °F56 %30.14 in10.0 miSW (220°)3.5 mphPartly Cloudy
1:53 PM78.1 °F61.0 °F56 %30.12 in10.0 miCalmPartly Cloudy
2:53 PM78.1 °F60.1 °F54 %30.12 in10.0 miVariable5.8 mphOvercast
3:53 PM78.1 °F61.0 °F56 %30.11 in10.0 miSouth (180°)3.5 mphOvercast
4:53 PM78.1 °F61.0 °F56 %30.11 in10.0 miNW (310°)3.5 mphOvercast
5:53 PM78.1 °F61.0 °F56 %30.10 in10.0 miSSW (200°)3.5 mphOvercast
6:53 PM78.1 °F61.0 °F56 %30.12 in10.0 miSSE (150°)4.6 mphOvercast
7:53 PM77.0 °F63.0 °F62 %30.13 in10.0 miSE (130°)6.9 mphOvercast
8:53 PM75.0 °F64.0 °F69 %30.13 in10.0 miESE (110°)4.6 mphOvercast
9:53 PM73.9 °F64.9 °F73 %30.14 in10.0 miSE (130°)4.6 mphOvercast
10:53 PM73.0 °F64.0 °F73 %30.14 in10.0 miESE (120°)4.6 mphScattered Clouds
11:53 PM73.0 °F63.0 °F71 %30.14 in10.0 miSSE (160°)3.5 mphMostly Cloudy
Hourly data recorded from KHGR, located miles away from Williamsport, Maryland







STORIES FROM OUR PARTNERS